星链-5490 (STARLINK-5490 )

导读 | 豆包AI

STARLINK-5490是美国太空探索技术公司Starlink星座的成员,由美国于2023年7月7日发射入轨。它属于星链第二代卫星,承担着为全球提供高速低延迟互联网服务的任务,尤其能为偏远地区、移动载体提供网络连接,也助力美军的卫星通信服务,是星链规模持续扩张过程中的重要组网卫星。

Basic Information
目录编号:
57254
目录名称:
STARLINK-5490
国际标识:
2023-094AN
轨道中心:
EARTH
卫星名称:
星链-5490
卫星全名:
星链-5490 (STARLINK-5490 )
卫星状态:
在轨 (已飞行1028 天)
发射日期:
2023-07-07 UTC
国别 :
美国 (US)
星等 :
--
Orbit Information
数据来源 国际轨道数据 AOE轨道数据
星历时间 2026-04-30T06:41:37+0800
16小时前
查看轨道信息
2026-04-28T12:00:00+0800
2天前
查看轨道信息
半长轴 6863.7km 6863.687km
偏心率 0.0001282 0.0001814
轨道倾角 43.005° 43.003°
近地点辐角 269.200° 268.120°
升交点赤经 90.006° 100.042°
平近点角 90.871° 23.170°
近地点 484.683km 484.304km
远地点 486.443km 486.796km
周期 94.319分钟 94.318分钟
每日圈数 15.26741 15.267455
Detailed Information
固有亮度:
5
最大亮度:
2.4
卫星平台:
Starlink v1.5
覆盖范围:
全球
运营商:
太空探索技术公司
运营商所在国:
美国
制造商(研发单位):
太空探索技术公司
制造商所在国:
美国
使用方式:
暂无
Satellite Introduction
星链(Starlink)计划是由太空探索技术公司(SpaceX)提出的一个巨型低轨卫星互联网星座项目,计划在2019年至2024年间在太空搭建由约1.2万颗卫星组成的“星链”网络,其中1584颗将部署在地球上空550千米处的近地轨道,并从2020年开始工作。该卫星仍在工作。
2D Orbit Map
3D Orbit Map
Orbit Altitude Analysis Chart
Orbit Inclination Analysis Chart
Orbit Comprehensive Analysis Chart
View Comprehensive Chart